This is the latest recevied weather packets stored in our database for station/object N2XGL-1. If no packets are shown the sender has not sent any weather packets the latest 1 day(s).
| Time | Temp. | Humidity | Pressure | Rain* | Wind** | Luminosity | Snow |
|---|---|---|---|---|---|---|---|
| 1778019871 | 0.56° C | 93% | 1010.9 hPa | 0.25 mm | 2.24 m/s, 0° | - | - |
| 1778019374 | 0.56° C | 93% | 1011 hPa | 0.25 mm | 3.13 m/s, 0° | - | - |
| 1778018793 | 1.11° C | 93% | 1010.7 hPa | 0.25 mm | 2.68 m/s, 0° | - | - |
| 1778018218 | 1.11° C | 93% | 1010.6 hPa | 0.51 mm | 1.79 m/s, 0° | - | - |
| 1778017668 | 1.67° C | 93% | 1010.4 hPa | 1.02 mm | 3.13 m/s, 0° | - | - |
| 1778017141 | 1.67° C | 93% | 1010.2 hPa | 1.27 mm | 2.68 m/s, 0° | - | - |
| 1778016033 | 1.67° C | 93% | 1010.1 hPa | 1.78 mm | 2.24 m/s, 0° | - | - |
| 1778015498 | 1.67° C | 93% | 1010.4 hPa | 1.52 mm | 3.13 m/s, 0° | - | - |
| 1778014963 | 1.11° C | 93% | 1010.4 hPa | 1.52 mm | 2.24 m/s, 0° | - | - |
| 1778014483 | 1.11° C | 92% | 1010.2 hPa | 1.78 mm | 2.24 m/s, 0° | - | - |
| 1778013898 | 1.11° C | 92% | 1010.2 hPa | 1.78 mm | 1.34 m/s, 0° | - | - |
| 1778013353 | 1.67° C | 92% | 1010.4 hPa | 1.78 mm | 2.24 m/s, 0° | - | - |
| 1778012821 | 1.67° C | 91% | 1010.5 hPa | 1.78 mm | 1.79 m/s, 0° | - | - |
| 1778012283 | 1.67° C | 90% | 1010.5 hPa | 1.52 mm | 2.68 m/s, 0° | - | - |
| 1778011699 | 3.33° C | 91% | 1010.6 hPa | 1.78 mm | 2.24 m/s, 0° | - | - |
| 1778011213 | 3.33° C | 92% | 1010.4 hPa | 1.27 mm | 1.79 m/s, 0° | - | - |
| 1778010641 | 3.89° C | 92% | 1010.2 hPa | 1.27 mm | 0.89 m/s, 0° | - | - |
| 1778010058 | 3.89° C | 92% | 1010.3 hPa | 1.27 mm | 0.89 m/s, 0° | - | - |
| 1778008947 | 3.89° C | 92% | 1010.2 hPa | 1.02 mm | 0.89 m/s, 338° | - | - |
| 1778008438 | 3.89° C | 92% | 1009.8 hPa | 0.76 mm | 0.89 m/s, 0° | - | - |
| 1778007936 | 3.89° C | 92% | 1009.8 hPa | 0.76 mm | 0.89 m/s, 45° | - | - |
| 1778007373 | 3.89° C | 92% | 1009.7 hPa | 0.76 mm | 0.45 m/s, 22° | - | - |
| 1778005821 | 3.89° C | 93% | 1009.8 hPa | 0.76 mm | 0.45 m/s, 22° | - | - |
| 1778005273 | 3.89° C | 93% | 1010.1 hPa | 1.02 mm | 0 m/s | - | - |
| 1778004698 | 3.33° C | 93% | 1010.1 hPa | 1.02 mm | 0.45 m/s, 338° | - | - |
* Rain latest hour (hover to see other rain measurements)
** Current wind speed in m/s (hover to see current wind gust speed)